TimeMST,TemperatureF,Dew PointF,Humidity,Sea Level PressureIn,VisibilityMPH,Wind Direction,Wind SpeedMPH,Gust SpeedMPH,PrecipitationIn,Events,Conditions,WindDirDegrees,DateUTC
12:51 AM,14.0,10.9,88,30.38,0.2,Calm,Calm,-,N/A,Fog,Light Freezing Fog,0,2013-02-04 07:51:00
1:51 AM,14.0,10.9,88,30.38,0.2,Calm,Calm,-,N/A,Fog,Light Freezing Fog,0,2013-02-04 08:51:00
4:51 AM,12.9,10.0,88,30.38,0.2,Calm,Calm,-,N/A,Fog,Light Freezing Fog,0,2013-02-04 11:51:00
5:51 AM,12.9,10.0,88,30.39,0.5,Calm,Calm,-,N/A,Fog,Light Freezing Fog,0,2013-02-04 12:51:00
6:45 AM,14.0,10.4,86,30.23,1.2,Calm,Calm,-,N/A,,Overcast,0,2013-02-04 13:45:00
6:51 AM,14.0,10.9,88,30.38,1.5,Calm,Calm,-,N/A,,Overcast,0,2013-02-04 13:51:00
7:36 AM,15.8,10.4,79,30.24,2.0,Calm,Calm,-,N/A,,Overcast,0,2013-02-04 14:36:00
7:51 AM,12.9,10.0,88,30.39,2.0,Calm,Calm,-,N/A,,Overcast,0,2013-02-04 14:51:00
7:58 AM,14.0,10.4,86,30.24,1.8,WSW,4.6,-,N/A,,Overcast,250,2013-02-04 14:58:00
8:09 AM,12.2,8.6,85,30.24,2.0,West,4.6,-,N/A,,Overcast,260,2013-02-04 15:09:00
8:21 AM,12.2,8.6,85,30.25,1.8,WSW,4.6,-,N/A,,Overcast,250,2013-02-04 15:21:00
8:49 AM,12.2,8.6,85,30.25,2.0,WSW,3.5,-,N/A,,Haze,250,2013-02-04 15:49:00
8:51 AM,12.9,9.0,84,30.41,2.0,WSW,3.5,-,N/A,,Overcast,240,2013-02-04 15:51:00
9:16 AM,12.2,8.6,85,30.25,2.5,WSW,4.6,-,N/A,,Mostly Cloudy,240,2013-02-04 16:16:00
9:36 AM,14.0,12.2,93,30.25,3.0,Calm,Calm,-,N/A,,Mostly Cloudy,0,2013-02-04 16:36:00
9:48 AM,15.8,14.0,93,30.24,2.5,Calm,Calm,-,N/A,,Mostly Cloudy,0,2013-02-04 16:48:00
9:51 AM,16.0,12.9,88,30.39,2.5,Calm,Calm,-,N/A,,Mostly Cloudy,0,2013-02-04 16:51:00
9:57 AM,15.8,14.0,93,30.24,2.5,Calm,Calm,-,N/A,,Mostly Cloudy,0,2013-02-04 16:57:00
10:00 AM,17.6,14.0,86,30.24,3.0,Calm,Calm,-,N/A,,Mostly Cloudy,0,2013-02-04 17:00:00
10:51 AM,21.0,16.0,81,30.39,3.0,Calm,Calm,-,N/A,,Haze,0,2013-02-04 17:51:00
11:51 AM,19.9,17.1,89,30.39,3.0,Calm,Calm,-,N/A,,Overcast,0,2013-02-04 18:51:00
12:51 PM,21.9,17.1,82,30.37,4.0,NNW,3.5,-,N/A,,Haze,340,2013-02-04 19:51:00
1:51 PM,23.0,19.0,85,30.35,4.0,Calm,Calm,-,N/A,,Mostly Cloudy,0,2013-02-04 20:51:00
2:51 PM,23.0,19.0,85,30.34,4.0,West,3.5,-,N/A,,Overcast,270,2013-02-04 21:51:00
3:51 PM,24.1,19.9,84,30.31,4.0,Calm,Calm,-,N/A,,Overcast,0,2013-02-04 22:51:00
4:51 PM,24.1,19.0,81,30.31,4.0,Calm,Calm,-,N/A,,Haze,0,2013-02-04 23:51:00
5:51 PM,19.0,16.0,88,30.32,3.0,Calm,Calm,-,N/A,,Partly Cloudy,0,2013-02-05 00:51:00
6:51 PM,16.0,12.9,88,30.33,4.0,North,3.5,-,N/A,,Clear,360,2013-02-05 01:51:00
7:51 PM,15.1,10.9,84,30.36,4.0,Calm,Calm,-,N/A,,Clear,0,2013-02-05 02:51:00
8:51 PM,12.9,10.9,92,30.37,3.0,SW,3.5,-,N/A,,Clear,220,2013-02-05 03:51:00
9:04 PM,12.2,10.4,92,30.20,2.0,SW,5.8,-,N/A,,Clear,220,2013-02-05 04:04:00
9:51 PM,12.9,10.0,88,30.34,1.5,Calm,Calm,-,N/A,,Partly Cloudy,0,2013-02-05 04:51:00
10:26 PM,10.4,8.6,92,30.18,2.0,NNW,9.2,-,N/A,,Clear,340,2013-02-05 05:26:00
10:42 PM,10.4,8.6,92,30.18,3.0,North,9.2,-,N/A,,Clear,10,2013-02-05 05:42:00
10:51 PM,12.0,10.0,92,30.32,3.0,North,8.1,-,N/A,,Clear,10,2013-02-05 05:51:00
11:51 PM,17.1,14.0,88,30.32,4.0,SSW,4.6,-,N/A,,Scattered Clouds,200,2013-02-05 06:51:00